Simultaneous Nadir Overpasses (SNOs) Predictions

Prediction of SNOs between NOAA-19 and NPP Satellite Orbit:

Table of predicted SNOs for the next 14.0 days since TLE Epoch: 12/21/2013
Index Date (NOAA-19) Time (NOAA-19) Lat,Lon (NOAA-19) SZA (NOAA-19 ) Date (NPP) Time (NPP) Lat,Lon (NPP) SZA (NPP ) Distance(km) Time Diff (sec)
1 01/01/2014 04:24:58 -80.98,-119.92 72.44 01/01/2014 04:26:05 -80.98,-119.88 72.48 0.88 67
2 01/01/2014 05:16:03 80.98, 47.42 107.55 01/01/2014 05:16:50 80.97, 47.54 107.50 2.06 47
3 01/01/2014 06:07:02 -80.98,-145.41 72.45 01/01/2014 06:07:35 -80.98,-145.26 72.49 2.65 33
4 01/01/2014 06:58:05 80.96, 22.69 107.43 01/01/2014 06:58:19 80.96, 22.53 107.45 2.80 14
5 01/01/2014 07:49:04 -80.96,-170.15 72.56 01/01/2014 07:49:04 -80.96,-170.27 72.55 2.14 0
6 01/01/2014</
